Waarnemingen

Advertentie
Mijn weer
St-Dizier, Frankrijk (7169): temperatuur & dauwpunt: 11.07.2019 00:00:00 - 17.07.2019 00:00:00 (CEST)St-Dizier, Frankrijk (7169): temperatuur 5cm: 11.07.2019 00:00:00 - 17.07.2019 00:00:00 (CEST)St-Dizier, Frankrijk (7169): temperatuur -20cm & temperatuur -100cm: 11.07.2019 00:00:00 - 17.07.2019 00:00:00 (CEST)St-Dizier, Frankrijk (7169): windsnelheid & windstoten: 11.07.2019 00:00:00 - 17.07.2019 00:00:00 (CEST)St-Dizier, Frankrijk (7169): windrichting: 11.07.2019 00:00:00 - 17.07.2019 00:00:00 (CEST)St-Dizier, Frankrijk (7169): luchtdruk: 11.07.2019 00:00:00 - 17.07.2019 00:00:00 (CEST)St-Dizier, Frankrijk (7169): zicht: 11.07.2019 00:00:00 - 17.07.2019 00:00:00 (CEST)St-Dizier, Frankrijk (7169): Zonneschijnduur: 11.07.2019 00:00:00 - 17.07.2019 00:00:00 (CEST)St-Dizier, Frankrijk (7169): neerslag: 11.07.2019 00:00:00 - 17.07.2019 00:00:00 (CEST)
Datum & Tijd tt [°C] td [°C] tt 5cm [°C] tt -20cm [°C] tt -100cm [°C] ff [km/u] ff [kn] fx [km/u] fx [kn] dd ppp [hPa] vv [km] sd [min] rr [mm]
17.07.2019 00:00:00 16,4 8,6 14,8 24,7 20,3 0 0 10 5 N 1016,7 34 0 0,0
16.07.2019 23:00:00 18,5 8,2 16,5 24,7 20,3 6 3 9 5 NW 1016,6 37 0 0,0
16.07.2019 22:00:00 21,0 7,9 20,1 24,5 20,3 3 2 11 6 NNW 1016,3 50 10 0,0
16.07.2019 21:00:00 23,6 7,6 23,9 24,3 20,4 10 5 19 10 NNW 1016,0 55 40 0,0
16.07.2019 20:00:00 24,5 7,2 24,8 24,0 20,3 12 6 19 10 NNW 1015,9 57 35 0,0
16.07.2019 19:00:00 25,6 6,2 29,1 23,6 20,3 11 6 21 12 NNW 1015,9 47 60 0,0
16.07.2019 18:00:00 25,8 6,9 29,6 23,3 20,3 11 6 26 14 NNW 1016,0 22 60 0,0
16.07.2019 17:00:00 26,3 7,8 30,7 22,9 20,3 4 2 26 14 WNW 1016,2 41 60 0,0
16.07.2019 16:00:00 26,2 7,7 30,1 22,6 20,3 10 6 29 16 N 1016,6 60 60 0,0
16.07.2019 15:00:00 25,2 8,6 30,1 22,4 20,4 12 6 27 15 NW 1016,7 20 60 0,0
16.07.2019 14:00:00 24,1 8,5 29,5 22,3 20,4 8 4 21 12 NNW 1017,2 22 60 0,0
16.07.2019 13:00:00 22,4 8,5 27,4 22,2 20,4 6 4 21 12 NO 1017,7 33 60 0,0
16.07.2019 12:00:00 21,8 9,7 27,2 22,3 20,4 7 4 20 11 NNO 1018,1 20 60 0,0
16.07.2019 11:00:00 20,1 9,3 23,7 22,4 20,4 8 4 15 8 N 1018,6 18 60 0,0
16.07.2019 10:00:00 18,4 9,5 21,3 22,5 20,4 3 1 14 7 N 1018,8 17 60 0,0
16.07.2019 09:00:00 15,8 8,5 18,3 22,7 20,4 3 2 8 5 N 1019,1 12 60 0,0
16.07.2019 08:00:00 13,5 8,8 12,0 23,0 20,4 4 2 7 4 N 1019,1 16 60 0,0
16.07.2019 07:00:00 10,9 8,1 9,7 23,1 20,4 2 1 4 2 NNW 1019,3 17 37 0,0
16.07.2019 06:00:00 10,3 7,9 9,5 23,3 20,4 0 0 5 3 N 1019,2 16 0 0,0
16.07.2019 05:00:00 11,2 8,1 10,1 23,5 20,4 0 0 6 3 N 1019,0 22 0 0,0
16.07.2019 04:00:00 12,0 8,3 11,2 23,7 20,4 6 4 9 5 N 1019,2 26 0 0,0
16.07.2019 03:00:00 12,9 8,6 12,0 23,8 20,4 8 5 10 5 N 1019,3 22 0 0,0
16.07.2019 02:00:00 14,1 8,7 13,5 23,9 20,4 6 3 13 7 N 1019,2 33 0 0,0
16.07.2019 01:00:00 15,1 9,0 14,5 23,9 20,4 6 3 16 9 N 1018,9 36 0 0,0
16.07.2019 00:00:00 16,3 9,2 15,7 23,9 20,4 11 6 19 11 NNO 1018,6 42 0 0,0
15.07.2019 23:00:00 17,7 9,3 16,9 23,8 20,4 10 5 22 12 NNO 1018,3 52 0 0,0
15.07.2019 22:00:00 19,8 9,4 19,2 23,7 20,4 10 5 19 10 N 1017,7 60 11 0,0
15.07.2019 21:00:00 22,5 9,3 23,6 23,5 20,4 13 7 22 12 N 1017,2 41 60 0,0
15.07.2019 20:00:00 23,9 9,5 24,9 23,2 20,4 14 8 26 14 N 1016,9 36 60 0,0
15.07.2019 19:00:00 24,6 9,3 28,1 23,0 20,4 14 8 29 16 N 1016,7 31 60 0,0
15.07.2019 18:00:00 24,1 8,9 29,3 22,7 20,4 14 8 30 16 N 1016,9 23 60 0,0
15.07.2019 17:00:00 24,7 9,4 29,5 22,5 20,4 15 8 34 18 N 1017,2 10 60 0,0
15.07.2019 16:00:00 22,4 8,9 26,5 22,4 20,4 14 8 32 18 NNO 1017,7 14 45 0,0
15.07.2019 15:00:00 22,0 9,5 25,5 22,2 20,4 16 9 34 18 N 1017,9 10 42 0,0
15.07.2019 14:00:00 21,0 8,3 24,9 22,2 20,4 18 10 35 19 NO 1018,3 14 38 0,0
15.07.2019 13:00:00 20,6 8,6 23,4 22,3 20,4 22 12 30 16 N 1018,4 8 34 0,0
15.07.2019 12:00:00 19,6 8,6 20,8 22,3 20,4 19 10 30 16 N 1018,4 10 5 0,0
15.07.2019 11:00:00 18,6 8,8 20,2 22,4 20,4 17 9 29 16 NNO 1018,3 21 4 0,0
15.07.2019 10:00:00 18,2 8,2 21,4 22,6 20,4 18 10 28 15 NNO 1018,5 17 51 0,0
15.07.2019 09:00:00 16,9 10,5 16,1 22,8 20,5 15 8 21 12 NNO 1018,7 13 18 0,0
15.07.2019 08:00:00 14,1 10,7 13,6 23,0 20,4 11 6 18 10 NNO 1018,8 32 16 0,0
15.07.2019 07:00:00 12,6 10,3 10,7 23,2 20,4 10 5 14 8 NNO 1018,7 19 38 0,0
15.07.2019 06:00:00 11,7 9,4 10,9 23,4 20,5 8 4 13 7 NNO 1018,4 10 0 0,0
15.07.2019 05:00:00 12,0 9,4 11,3 23,6 20,5 10 5 14 7 NNO 1018,1 37 0 0,0
15.07.2019 04:00:00 11,9 8,7 11,0 23,7 20,4 5 3 11 6 - 1018,4 10 0 0,0
15.07.2019 03:00:00 12,1 7,8 11,0 23,9 20,4 8 4 12 6 N 1018,8 10 0 0,0
15.07.2019 02:00:00 13,0 7,2 11,9 24,1 20,5 8 4 12 7 NNO 1018,8 60 0 0,0
15.07.2019 01:00:00 14,0 7,3 12,6 24,2 20,5 5 3 11 6 NO 1018,7 10 0 0,0
15.07.2019 00:00:00 15,1 7,1 14,1 24,2 20,5 5 3 14 7 N 1018,6 10 0 0,0
14.07.2019 23:00:00 16,5 7,4 16,0 24,2 20,5 10 6 18 10 NNO 1018,3 60 0 0,0
14.07.2019 22:00:00 17,7 8,0 17,2 24,1 20,4 11 6 22 12 NNO 1017,9 60 11 0,0
14.07.2019 21:00:00 19,5 7,9 20,1 24,0 20,5 15 8 33 18 N 1017,4 10 60 0,0
14.07.2019 20:00:00 20,7 8,7 22,3 23,8 20,5 22 12 39 21 NNO 1017,2 10 60 0,0
14.07.2019 19:00:00 22,0 8,8 24,8 23,5 20,5 24 13 39 21 N 1016,9 10 60 0,0
14.07.2019 18:00:00 22,3 9,1 26,5 23,3 20,5 26 14 40 21 N 1016,7 10 60 0,0
14.07.2019 17:00:00 23,2 9,6 24,8 23,1 20,5 24 13 44 24 N 1016,6 10 46 0,0
14.07.2019 16:00:00 22,6 9,4 26,1 23,0 20,5 24 13 37 20 N 1016,9 10 41 0,0
14.07.2019 15:00:00 22,6 10,1 26,4 22,9 20,5 21 11 37 20 N 1017,2 51 48 0,0
14.07.2019 14:00:00 22,2 9,7 24,0 22,9 20,5 24 13 41 22 N 1017,4 40 39 0,0
14.07.2019 13:00:00 21,3 10,5 22,7 22,9 20,5 22 12 31 17 N 1017,8 10 24 0,0
14.07.2019 12:00:00 20,6 10,7 22,9 23,0 20,5 19 10 34 19 NNO 1018,0 33 29 0,0
14.07.2019 11:00:00 19,3 11,6 20,0 23,1 20,5 16 8 26 14 N 1018,2 51 1 0,0
14.07.2019 10:00:00 17,6 11,8 18,0 23,3 20,5 13 7 22 12 NNO 1018,4 35 1 0,0
14.07.2019 09:00:00 16,2 12,2 16,5 23,4 20,5 15 8 20 11 N 1018,3 10 2 0,0
14.07.2019 08:00:00 15,2 12,0 15,1 23,6 20,5 11 6 18 10 N 1018,0 10 3 0,0
14.07.2019 07:00:00 14,3 11,6 12,6 23,8 20,5 4 2 5 3 N 1017,8 27 40 0,0
14.07.2019 06:00:00 13,3 11,0 12,1 23,9 20,5 4 2 12 7 - 1017,9 10 0 0,0
14.07.2019 05:00:00 13,7 10,9 13,3 24,1 20,5 8 4 12 7 N 1018,0 10 0 0,0
14.07.2019 04:00:00 14,2 11,2 13,4 24,2 20,5 4 2 8 5 WNW 1018,6 42 0 0,0
14.07.2019 03:00:00 14,4 11,2 13,5 24,4 20,5 6 4 10 5 WNW 1019,0 42 0 0,0
14.07.2019 02:00:00 15,3 11,3 14,8 24,4 20,5 9 5 14 8 N 1018,7 52 0 0,0
14.07.2019 01:00:00 16,6 11,5 16,1 24,5 20,5 6 4 10 6 N 1018,9 60 0 0,0
14.07.2019 00:00:00 17,4 11,4 16,8 24,6 20,5 7 4 20 11 NNW 1019,2 60 0 0,0
13.07.2019 23:00:00 18,5 11,6 18,1 24,5 20,5 15 8 23 12 NNW 1019,2 10 0 0,0
13.07.2019 22:00:00 20,1 10,8 19,6 24,4 20,5 6 3 24 13 NNW 1018,7 60 12 0,0
13.07.2019 21:00:00 21,9 10,4 22,2 24,3 20,5 16 9 26 14 NNW 1018,3 60 38 0,0
13.07.2019 20:00:00 23,6 10,3 24,5 24,1 20,5 18 10 26 14 NNW 1017,9 46 55 0,0
13.07.2019 19:00:00 23,5 10,2 25,2 23,9 20,5 16 9 31 17 N 1018,1 10 15 0,0
13.07.2019 18:00:00 23,6 9,9 25,9 23,7 20,5 15 8 30 16 NNW 1018,3 47 36 0,0
13.07.2019 17:00:00 24,1 9,7 25,9 23,5 20,5 18 10 29 16 N 1018,5 10 5 0,0
13.07.2019 16:00:00 24,8 9,5 26,2 23,4 20,5 15 8 29 15 NNW 1018,5 10 41 0,0
13.07.2019 15:00:00 23,4 9,4 25,6 23,3 20,5 17 9 27 15 NNW 1018,9 20 15 0,0
13.07.2019 14:00:00 23,1 9,5 25,0 23,2 20,5 11 6 29 16 N 1019,1 10 36 0,0
13.07.2019 13:00:00 21,4 10,2 23,0 23,2 20,5 16 9 35 19 NW 1019,7 10 21 0,0
13.07.2019 12:00:00 20,4 10,2 22,3 23,3 20,5 15 8 27 14 NW 1019,6 10 26 0,0
13.07.2019 11:00:00 19,7 11,2 19,7 23,4 20,5 11 6 20 11 NNW 1019,6 10 29 0,0
13.07.2019 10:00:00 18,4 11,7 19,1 23,6 20,5 8 4 16 9 N 1019,6 10 23 0,0
13.07.2019 09:00:00 16,2 11,8 17,3 23,8 20,5 8 4 14 8 N 1019,4 10 16 0,0
13.07.2019 08:00:00 15,6 11,0 13,8 24,0 20,4 0 0 4 2 N 1018,9 10 58 0,0
13.07.2019 07:00:00 12,7 10,6 10,8 24,2 20,5 2 1 5 3 O 1018,8 10 40 0,0
13.07.2019 06:00:00 12,3 11,2 10,6 24,4 20,5 0 0 4 2 N 1018,5 13 0 0,0
13.07.2019 05:00:00 12,5 10,6 11,1 24,6 20,5 3 2 4 2 O 1017,9 19 0 0,0
13.07.2019 04:00:00 13,3 11,5 12,0 24,8 20,5 3 1 4 2 O 1017,7 21 0 0,0
13.07.2019 03:00:00 13,8 12,2 12,5 24,9 20,5 0 0 2 1 N 1017,5 10 0 0,0
13.07.2019 02:00:00 14,4 12,1 12,5 25,1 20,5 0 0 3 2 N 1017,5 23 0 0,0
13.07.2019 01:00:00 15,3 11,9 14,0 25,1 20,5 0 0 5 3 N 1017,4 10 0 0,0
13.07.2019 00:00:00 16,8 12,5 15,0 25,1 20,5 4 2 8 4 ZW 1017,0 10 0 0,0
12.07.2019 23:00:00 17,9 12,1 17,0 25,1 20,5 6 3 9 5 NNO 1016,5 58 0 0,0
12.07.2019 22:00:00 18,8 12,8 18,7 25,0 20,5 8 4 14 8 N 1015,5 10 4 0,0
12.07.2019 21:00:00 19,8 12,5 20,1 24,9 20,5 10 5 47 26 N 1014,7 60 1 0,0
12.07.2019 20:00:00 25,2 10,3 25,5 24,8 20,5 22 12 35 19 NW 1013,3 10 14 0,0
12.07.2019 19:00:00 26,2 9,5 27,3 24,6 20,5 26 14 42 23 NW 1012,8 10 23 0,0
12.07.2019 18:00:00 27,3 8,7 28,3 24,4 20,4 30 16 46 25 WNW 1012,6 10 55 0,0
12.07.2019 17:00:00 27,1 8,5 28,1 24,3 20,4 33 18 50 27 W 1012,8 3,8 45 0,0
12.07.2019 16:00:00 26,4 10,1 28,0 24,2 20,4 24 13 48 26 WNW 1013,2 10 45 0,0
12.07.2019 15:00:00 25,9 11,3 25,5 24,1 20,4 27 14 37 20 WNW 1013,4 20 17 0,0
12.07.2019 14:00:00 24,3 10,9 23,8 24,1 20,4 18 10 29 16 WNW 1013,8 10 3 0,0
12.07.2019 13:00:00 23,0 11,7 23,1 24,1 20,4 21 11 34 18 W 1013,9 10 2 0,0
12.07.2019 12:00:00 22,9 11,9 25,0 24,1 20,4 15 8 45 24 W 1014,0 10 6 0,0
12.07.2019 11:00:00 22,4 11,5 24,0 24,2 20,4 16 9 29 15 W 1013,8 34 32 0,0
12.07.2019 10:00:00 21,1 10,3 22,4 24,3 20,4 16 9 28 15 W 1013,9 36 49 0,0
12.07.2019 09:00:00 20,2 10,3 21,4 24,5 20,4 14 7 21 11 WZW 1013,8 41 60 0,0
12.07.2019 08:00:00 19,1 11,6 18,8 24,6 20,4 8 5 15 8 W 1013,4 27 33 0,0
12.07.2019 07:00:00 18,4 11,7 17,9 24,8 20,4 9 5 15 8 WNW 1012,8 28 2 0,0
12.07.2019 06:00:00 18,0 12,9 17,4 24,9 20,4 11 6 16 9 WNW 1012,5 28 0 0,0
12.07.2019 05:00:00 18,5 10,6 17,3 25,1 20,4 4 2 5 3 Z 1011,9 59 0 0,0
12.07.2019 04:00:00 18,9 10,2 17,9 25,2 20,4 4 2 6 3 O 1011,6 59 0 0,0
12.07.2019 03:00:00 19,4 9,8 18,4 25,3 20,4 5 3 8 5 O 1011,8 60 0 0,0
12.07.2019 02:00:00 20,0 9,5 18,3 25,3 20,4 4 2 8 4 OZO 1012,1 60 0 0,0
12.07.2019 01:00:00 20,3 9,8 18,7 25,3 20,4 5 3 11 6 O 1012,1 60 0 0,0
12.07.2019 00:00:00 21,0 10,5 19,5 25,3 20,4 4 2 9 5 ZO 1012,7 56 0 0,0
11.07.2019 23:00:00 22,3 11,7 20,9 25,3 20,4 7 4 9 5 OZO 1012,7 54 0 0,0
11.07.2019 22:00:00 23,8 11,5 22,8 25,1 20,4 3 2 8 4 OZO 1012,5 57 2 0,0
11.07.2019 21:00:00 25,1 11,3 24,8 24,9 20,4 3 2 10 5 Z 1012,2 55 0 0,0
11.07.2019 20:00:00 25,9 10,5 26,3 24,6 20,4 8 4 21 11 Z 1012,4 55 12 0,0
11.07.2019 19:00:00 26,9 9,3 28,3 24,3 20,4 14 8 22 12 ZZW 1012,4 42 28 0,0
11.07.2019 18:00:00 27,5 10,2 31,8 24,0 20,4 12 6 29 16 WZW 1012,4 19 60 0,0
11.07.2019 17:00:00 26,9 9,7 32,6 23,8 20,4 13 7 26 14 ZZW 1012,8 35 60 0,0
11.07.2019 16:00:00 27,2 9,5 32,3 23,7 20,4 13 7 30 16 ZZW 1013,4 40 60 0,0
11.07.2019 15:00:00 26,9 10,1 30,5 23,6 20,4 9 5 21 11 Z 1013,6 9 53 0,0
11.07.2019 14:00:00 25,3 9,2 30,0 23,7 20,4 9 5 23 12 Z 1014,0 32 56 0,0
11.07.2019 13:00:00 23,7 10,7 24,7 23,8 20,4 7 4 14 8 ZW 1014,6 35 19 0,0
11.07.2019 12:00:00 20,5 10,6 19,0 23,9 20,4 6 3 19 11 O 1014,5 52 0 0,0
11.07.2019 11:00:00 19,9 10,6 19,1 24,0 20,4 4 2 10 5 Z 1014,9 52 0 0,0
11.07.2019 10:00:00 19,0 9,2 19,1 24,1 20,4 0 0 4 2 N 1015,2 50 0 0,0
11.07.2019 09:00:00 17,5 9,1 17,3 24,3 20,4 0 0 13 7 N 1015,1 52 0 0,0
11.07.2019 08:00:00 16,5 9,2 16,1 24,4 20,4 6 3 8 5 OZO 1014,9 47 0 0,0
11.07.2019 07:00:00 15,8 9,2 15,2 24,6 20,4 7 4 9 5 O 1015,0 48 0 0,0
11.07.2019 06:00:00 15,7 9,8 15,1 24,8 20,4 4 2 6 3 O 1015,0 45 0 0,0
11.07.2019 05:00:00 15,9 9,6 15,5 24,9 20,4 3 1 5 3 ZO 1014,9 48 0 0,0
11.07.2019 04:00:00 16,1 9,7 15,7 25,1 20,4 4 2 9 5 O 1015,2 54 0 0,0
11.07.2019 03:00:00 16,5 9,9 15,7 25,2 20,4 6 3 8 4 O 1015,7 50 0 0,0
11.07.2019 02:00:00 16,7 9,1 15,8 25,3 20,4 2 1 5 3 OZO 1016,1 52 0 0,0
11.07.2019 01:00:00 17,5 9,1 16,9 25,3 20,4 3 2 8 4 ZO 1016,2 57 0 0,0
11.07.2019 00:00:00 18,1 10,0 17,4 25,3 20,4 6 3 8 4 OZO 1016,4 58 0 0,0

tt = temperatuur
td = dauwpunt
tt 5cm = temperatuur 5cm
tt -20cm = temperatuur -20cm
tt -100cm = temperatuur -100cm
ff = windsnelheid
fx = windstoten
dd = windrichting
ppp = luchtdruk
vv = zicht
sd = Zonneschijnduur
rr = neerslag

Weerstations in de omgeving